CW7710 Weather Reports


Display with metric or nautical units.
time (UTC)temp
F
wind
direction
speed
MPH
gust
MPH
rain 1hr
in
rain 24hr
in
rain mn
in
humidity
%
barometer
mb
20260902132354 53 209 3.0 0.0 0.00 0.00 0.00 85 1012.6
20260902131336 52 261 4.0 0.0 0.00 0.00 0.00 85 1012.7
20260902130338 52 279 4.0 0.0 0.00 0.00 0.00 84 1012.0
20260902125401 52 242 2.0 0.0 0.00 0.00 0.00 84 1012.5
20260902124327 53 305 3.0 0.0 0.00 0.00 0.00 83 1012.9
20260902123330 53 261 2.0 0.0 0.00 0.00 0.00 83 1013.0
20260902122359 53 192 2.0 0.0 0.00 0.00 0.00 83 1012.9
20260902121342 54 128 2.0 0.0 0.00 0.00 0.00 82 1012.7
20260902120330 54 89 2.0 0.0 0.00 0.00 0.00 82 1012.8
20260902115344 55 134 3.0 0.0 0.00 0.00 0.00 82 1012.4
20260902114328 55 97 2.0 0.0 0.00 0.00 0.00 82 1012.6
20260902113334 55 97 2.0 0.0 0.00 0.00 0.00 81 1012.6
20260902112341 56 127 4.0 0.0 0.00 0.00 0.00 81 1012.7
20260902111344 56 181 6.0 0.0 0.00 0.00 0.00 81 1012.8
20260902110348 56 167 6.0 0.0 0.00 0.00 0.00 81 1012.8
20260902105329 56 196 9.0 0.0 0.00 0.00 0.00 80 1013.7
20260902104336 56 144 9.0 0.0 0.00 0.00 0.00 80 1012.9
20260902103359 55 77 10.0 0.0 0.00 0.00 0.00 79 1012.7
20260902102341 56 43 3.0 0.0 0.00 0.00 0.00 77 1013.5
20260902101343 56 119 4.0 0.0 0.00 0.00 0.00 77 1014.2
20260902100326 57 96 2.0 0.0 0.00 0.00 0.00 76 1014.3
20260902095333 57 211 2.0 0.0 0.00 0.00 0.00 77 1014.7
20260902094336 58 144 3.0 0.0 0.00 0.00 0.00 77 1014.5
20260902093358 57 85 3.0 0.0 0.00 0.00 0.00 75 1014.4
20260902092340 57 72 6.0 0.0 0.00 0.00 0.00 73 1014.4
20260902091327 58 242 8.0 0.0 0.00 0.00 0.00 72 1014.1
20260902090334 59 207 10.0 0.0 0.00 0.00 0.00 71 1014.5
20260902085337 59 216 11.0 0.0 0.00 0.00 0.00 71 1014.7
20260902084340 60 223 6.0 0.0 0.00 0.00 0.00 71 1014.3
20260902083327 60 234 5.0 0.0 0.00 0.00 0.00 72 1014.4
20260902082350 60 344 6.0 0.0 0.00 0.00 0.00 72 1014.4
20260902081332 61 210 8.0 0.0 0.00 0.00 0.00 72 1014.4
20260902080335 61 201 6.0 0.0 0.00 0.00 0.00 70 1014.6
20260902075337 62 235 4.0 0.0 0.00 0.00 0.00 68 1014.5
20260902074344 62 161 2.0 0.0 0.00 0.00 0.00 67 1014.9
20260902073328 62 306 2.0 0.0 0.00 0.00 0.00 67 1014.4
20260902072334 61 280 3.0 0.0 0.00 0.00 0.00 67 1014.4
20260902071336 62 273 4.0 0.0 0.00 0.00 0.00 64 1014.2
20260902070343 64 310 5.0 0.0 0.00 0.00 0.00 62 1014.6
20260902065325 64 322 8.0 0.0 0.00 0.00 0.00 62 1013.9
20260902064328 65 302 9.0 0.0 0.00 0.00 0.00 60 1014.0
20260902063331 67 302 13.0 0.0 0.00 0.00 0.00 56 1014.3
20260902062337 68 276 19.0 0.0 0.00 0.00 0.00 54 1014.0
20260902061324 69 239 26.0 0.0 0.00 0.00 0.00 48 1013.4
20260902060350 70 204 20.0 0.0 0.00 0.00 0.00 48 1013.4
20260902055352 64 234 7.0 0.0 0.00 0.00 0.00 66 1012.7
20260902054354 61 225 5.0 0.0 0.00 0.00 0.00 68 1012.4
20260902053339 61 190 3.0 0.0 0.00 0.00 0.00 67 1012.1
20260902052345 62 146 3.0 0.0 0.00 0.00 0.00 65 1011.9
20260902051328 63 75 2.0 0.0 0.00 0.00 0.00 64 1011.6
20260902050330 63 83 3.0 0.0 0.00 0.00 0.00 63 1011.8
20260902045333 63 86 2.0 0.0 0.00 0.00 0.00 63 1012.3
20260902044400 64 172 1.0 0.0 0.00 0.00 0.00 61 1012.6
20260902043325 64 190 1.0 0.0 0.00 0.00 0.00 60 1012.5
20260902042328 65 138 2.0 0.0 0.00 0.00 0.00 59 1012.1
20260902040351 65 146 3.0 0.0 0.00 0.00 0.00 58 1012.8
20260902035336 65 78 3.0 0.0 0.00 0.00 0.00 57 1011.7
20260902034337 67 73 3.0 0.0 0.00 0.00 0.00 54 1011.5
20260902033337 67 97 2.0 0.0 0.00 0.00 0.00 54 1011.5
20260902032400 67 78 3.0 0.0 0.00 0.00 0.00 53 1011.6
20260902031341 67 75 4.0 0.0 0.00 0.00 0.00 52 1011.5
20260902030326 68 28 0.0 0.0 0.00 0.00 0.00 51 1012.1
20260902025328 68 345 2.0 0.0 0.00 0.00 0.00 50 1011.2
20260902024328 69 176 6.0 0.0 0.00 0.00 0.00 47 1010.8
20260902023329 70 150 6.0 0.0 0.00 0.00 0.00 46 1011.7
20260902022358 70 186 5.0 0.0 0.00 0.00 0.00 48 1011.2
20260902021338 71 165 4.0 0.0 0.00 0.00 0.00 48 1011.0
20260902020341 72 158 5.0 0.0 0.00 0.00 0.00 47 1010.7
20260902015404 74 159 4.0 0.0 0.00 0.00 0.00 44 1010.7
20260902014326 75 125 3.0 0.0 0.00 0.00 0.00 40 1010.7
20260902013333 75 115 4.0 0.0 0.00 0.00 0.00 39 1010.8
20260902012335 76 143 4.0 0.0 0.00 0.00 0.00 41 1010.6
20260902011359 77 123 4.0 0.0 0.00 0.00 0.00 39 1010.5
20260902010344 77 97 4.0 0.0 0.00 0.00 0.00 37 1010.5
20260902005330 77 102 6.0 0.0 0.00 0.00 0.00 37 1010.8
20260902004332 78 87 6.0 0.0 0.00 0.00 0.00 35 1010.6
20260902003335 78 89 6.0 0.0 0.00 0.00 0.00 38 1010.5
20260902002338 78 86 6.0 0.0 0.00 0.00 0.00 37 1010.7
20260902001326 79 81 8.0 0.0 0.00 0.00 0.00 34 1010.8
20260902000332 79 86 9.0 0.0 0.00 0.00 0.00 34 1010.8
20260901235335 80 82 10.0 0.0 0.00 0.00 0.00 31 1011.0
20260901234338 79 85 10.0 0.0 0.00 0.00 0.00 32 1011.5
20260901233345 80 81 11.0 0.0 0.00 0.00 0.00 32 1011.2
20260901232328 80 82 11.0 0.0 0.00 0.00 0.00 31 1011.1
20260901231331 80 85 12.0 0.0 0.00 0.00 0.00 31 1011.4
20260901230357 81 83 11.0 0.0 0.00 0.00 0.00 32 1011.4
20260901225339 80 107 10.0 0.0 0.00 0.00 0.00 34 1011.3
20260901224326 79 91 10.0 0.0 0.00 0.00 0.00 33 1011.7
20260901223328 79 86 9.0 0.0 0.00 0.00 0.00 31 1011.8
20260901222332 80 111 11.0 0.0 0.00 0.00 0.00 31 1011.8
20260901221338 80 90 8.0 0.0 0.00 0.00 0.00 31 1012.1
20260901220325 80 79 9.0 0.0 0.00 0.00 0.00 31 1012.1
20260901215351 80 93 9.0 0.0 0.00 0.00 0.00 32 1012.9
20260901214333 80 90 9.0 0.0 0.00 0.00 0.00 31 1012.1
20260901213338 81 86 9.0 0.0 0.00 0.00 0.00 32 1013.1
20260901212325 81 103 9.0 0.0 0.00 0.00 0.00 29 1013.0
20260901211348 80 91 9.0 0.0 0.00 0.00 0.00 30 1012.6
20260901210350 80 78 8.0 0.0 0.00 0.00 0.00 31 1012.9
20260901205331 80 84 9.0 0.0 0.00 0.00 0.00 30 1012.9
20260901204335 80 100 9.0 0.0 0.00 0.00 0.00 30 1013.0
20260901203342 80 130 8.0 0.0 0.00 0.00 0.00 31 1013.1
20260901202345 79 112 8.0 0.0 0.00 0.00 0.00 32 1013.7
20260901201328 79 119 9.0 0.0 0.00 0.00 0.00 33 1013.7
20260901200334 79 108 8.0 0.0 0.00 0.00 0.00 35 1013.6
20260901195344 79 115 8.0 0.0 0.00 0.00 0.00 37 1014.5
20260901194327 78 139 9.0 0.0 0.00 0.00 0.00 36 1014.7
20260901193330 78 121 11.0 0.0 0.00 0.00 0.00 37 1014.8
20260901192335 78 94 10.0 0.0 0.00 0.00 0.00 37 1014.9
20260901191402 77 124 10.0 0.0 0.00 0.00 0.00 37 1014.4
20260901190326 76 107 11.0 0.0 0.00 0.00 0.00 40 1014.6
20260901185329 75 96 13.0 0.0 0.00 0.00 0.00 40 1015.1
20260901184332 76 129 13.0 0.0 0.00 0.00 0.00 40 1015.0
20260901183345 76 138 12.0 0.0 0.00 0.00 0.00 41 1015.0
20260901182347 74 118 6.0 0.0 0.00 0.00 0.00 41 1015.5
20260901181329 74 298 3.0 0.0 0.00 0.00 0.00 45 1015.7
20260901180336 71 31 1.0 0.0 0.00 0.00 0.00 46 1015.3
20260901175325 69 20 1.0 0.0 0.00 0.00 0.00 50 1015.4
20260901174329 69 322 1.0 0.0 0.00 0.00 0.00 51 1015.5
20260901173336 69 17 0.0 0.0 0.00 0.00 0.00 48 1015.6
20260901172340 69 91 2.0 0.0 0.00 0.00 0.00 47 1015.9
20260901171330 68 35 2.0 0.0 0.00 0.00 0.00 50 1016.1
20260901170333 67 338 1.0 0.0 0.00 0.00 0.00 51 1016.3
20260901165356 66 93 4.0 0.0 0.00 0.00 0.00 52 1015.9
20260901164359 65 98 2.0 0.0 0.00 0.00 0.00 55 1016.3
20260901163340 63 90 1.0 0.0 0.00 0.00 0.00 61 1016.4
20260901162331 62 125 3.0 0.0 0.00 0.00 0.00 62 1016.4
20260901161355 62 75 2.0 0.0 0.00 0.00 0.00 62 1016.4
20260901160337 61 65 4.0 0.0 0.00 0.00 0.00 64 1015.8
20260901155340 62 67 7.0 0.0 0.00 0.00 0.00 65 1016.0
20260901154331 61 92 7.0 0.0 0.00 0.00 0.00 68 1015.9
20260901153334 60 79 4.0 0.0 0.00 0.00 0.00 74 1016.3
20260901152338 58 78 6.0 0.0 0.00 0.00 0.00 77 1016.0
20260901151342 57 66 4.0 0.0 0.00 0.00 0.00 79 1015.9
20260901150344 55 73 2.0 0.0 0.00 0.00 0.00 81 1016.6
20260901145331 53 63 1.0 0.0 0.00 0.00 0.00 80 1015.9
20260901144354 52 73 0.0 0.0 0.00 0.00 0.00 80 1016.2
20260901143336 51 73 1.0 0.0 0.00 0.00 0.00 79 1016.0
20260901142402 51 98 0.0 0.0 0.00 0.00 0.00 79 1016.0
20260901141328 51 8 0.0 0.0 0.00 0.00 0.00 78 1016.0
20260901140331 52 26 1.0 0.0 0.00 0.00 0.00 78 1016.0
20260901135354 52 19 2.0 0.0 0.00 0.00 0.00 78 1016.2
20260901134335 52 84 1.0 0.0 0.00 0.00 0.00 78 1016.1
20260901133338 51 63 1.0 0.0 0.00 0.00 0.00 78 1016.1